| time (UTC) | temp C | wind direction | speed KPH | gust KPH | rain 1hr cm | rain 24hr cm | rain mn cm | humidity % | barometer mb |
| 20260506092504 | 7 | 264 | 11.3 | 29.0 | 0.00 | 0.00 | 0.00 | 45 | 1008.6 |
| 20260506092005 | 7 | 263 | 11.3 | 29.0 | 0.00 | 0.00 | 0.00 | 44 | 1008.6 |
| 20260506091504 | 7 | 248 | 11.3 | 29.0 | 0.00 | 0.00 | 0.00 | 44 | 1008.4 |
| 20260506091005 | 7 | 240 | 12.9 | 27.4 | 0.00 | 0.00 | 0.00 | 44 | 1008.5 |
| 20260506090504 | 7 | 252 | 11.3 | 29.0 | 0.00 | 0.00 | 0.00 | 46 | 1008.5 |
| 20260506090005 | 7 | 252 | 12.9 | 32.2 | 0.00 | 0.00 | 0.00 | 47 | 1008.4 |
| 20260506085504 | 7 | 256 | 12.9 | 32.2 | 0.00 | 0.00 | 0.00 | 48 | 1008.4 |
| 20260506085006 | 7 | 262 | 14.5 | 25.7 | 0.00 | 0.00 | 0.00 | 48 | 1008.3 |
| 20260506084004 | 6 | 259 | 11.3 | 27.4 | 0.00 | 0.00 | 0.00 | 49 | 1008.3 |
| 20260506083505 | 6 | 252 | 14.5 | 27.4 | 0.00 | 0.00 | 0.00 | 50 | 1008.3 |
| 20260506083004 | 6 | 247 | 16.1 | 25.7 | 0.00 | 0.00 | 0.00 | 49 | 1008.3 |
| 20260506082505 | 6 | 248 | 12.9 | 24.1 | 0.00 | 0.00 | 0.00 | 48 | 1008.3 |
| 20260506082004 | 7 | 252 | 8.0 | 22.5 | 0.00 | 0.00 | 0.00 | 48 | 1008.3 |
| 20260506081503 | 7 | 264 | 8.0 | 25.7 | 0.00 | 0.00 | 0.00 | 49 | 1008.2 |
| 20260506081006 | 6 | 262 | 9.7 | 25.7 | 0.00 | 0.00 | 0.00 | 49 | 1008.2 |
| 20260506080504 | 6 | 258 | 11.3 | 24.1 | 0.00 | 0.00 | 0.00 | 51 | 1008.1 |
| 20260506073505 | 6 | 243 | 9.7 | 30.6 | 0.00 | 0.00 | 0.00 | 53 | 1007.8 |
| 20260506073004 | 6 | 249 | 11.3 | 30.6 | 0.00 | 0.00 | 0.00 | 53 | 1007.9 |
| 20260506072505 | 6 | 262 | 8.0 | 20.9 | 0.00 | 0.00 | 0.00 | 53 | 1007.8 |
| 20260506072004 | 6 | 261 | 8.0 | 25.7 | 0.00 | 0.00 | 0.00 | 54 | 1007.7 |
| 20260506071505 | 6 | 253 | 9.7 | 25.7 | 0.00 | 0.00 | 0.00 | 56 | 1007.7 |
| 20260506071004 | 6 | 246 | 11.3 | 24.1 | 0.00 | 0.00 | 0.00 | 56 | 1007.7 |
| 20260506070507 | 6 | 240 | 12.9 | 24.1 | 0.00 | 0.00 | 0.00 | 56 | 1007.6 |
| 20260506062004 | 5 | 239 | 9.7 | 24.1 | 0.00 | 0.00 | 0.00 | 61 | 1007.3 |
| 20260506061004 | 5 | 254 | 8.0 | 24.1 | 0.00 | 0.00 | 0.00 | 63 | 1007.1 |
| 20260506060505 | 4 | 243 | 9.7 | 24.1 | 0.00 | 0.00 | 0.00 | 63 | 1007.2 |
| 20260506051005 | 3 | 270 | 8.0 | 22.5 | 0.00 | 0.00 | 0.00 | 71 | 1006.7 |
| 20260506050503 | 3 | 267 | 9.7 | 22.5 | 0.00 | 0.00 | 0.00 | 71 | 1006.7 |
| 20260506045003 | 2 | 252 | 6.4 | 16.1 | 0.00 | 0.00 | 0.00 | 74 | 1006.6 |
| 20260506044006 | 2 | 258 | 8.0 | 19.3 | 0.00 | 0.00 | 0.00 | 74 | 1006.6 |
| 20260506043504 | 2 | 256 | 8.0 | 19.3 | 0.00 | 0.00 | 0.00 | 74 | 1006.6 |
| 20260506043005 | 2 | 254 | 8.0 | 17.7 | 0.00 | 0.00 | 0.00 | 74 | 1006.5 |
| 20260506042504 | 2 | 254 | 8.0 | 17.7 | 0.00 | 0.00 | 0.00 | 75 | 1006.5 |
| 20260506041504 | 1 | 254 | 8.0 | 16.1 | 0.00 | 0.00 | 0.00 | 76 | 1006.4 |
| 20260506040005 | 1 | 244 | 8.0 | 20.9 | 0.00 | 0.00 | 0.00 | 76 | 1006.2 |
| 20260506035504 | 1 | 244 | 6.4 | 20.9 | 0.00 | 0.00 | 0.00 | 76 | 1006.2 |
| 20260506035005 | 1 | 242 | 6.4 | 16.1 | 0.00 | 0.00 | 0.00 | 77 | 1006.2 |
| 20260506034504 | 1 | 242 | 8.0 | 16.1 | 0.00 | 0.00 | 0.00 | 77 | 1006.1 |
| 20260506034005 | 1 | 245 | 8.0 | 14.5 | 0.00 | 0.00 | 0.00 | 77 | 1006.0 |
| 20260506033504 | 1 | 243 | 6.4 | 16.1 | 0.00 | 0.00 | 0.00 | 78 | 1006.0 |
| 20260506033007 | 1 | 245 | 6.4 | 17.7 | 0.00 | 0.00 | 0.00 | 78 | 1005.8 |
| 20260506032504 | 1 | 250 | 6.4 | 17.7 | 0.00 | 0.00 | 0.00 | 78 | 1005.9 |
| 20260506031004 | 1 | 243 | 6.4 | 14.5 | 0.00 | 0.00 | 0.00 | 80 | 1005.7 |
| 20260506030505 | 0 | 242 | 6.4 | 12.9 | 0.00 | 0.00 | 0.00 | 80 | 1005.6 |
| 20260506030004 | 0 | 242 | 4.8 | 16.1 | 0.00 | 0.00 | 0.00 | 80 | 1005.5 |
| 20260506025504 | 0 | 235 | 4.8 | 16.1 | 0.00 | 0.00 | 0.00 | 80 | 1005.6 |
| 20260506025006 | 0 | 232 | 4.8 | 14.5 | 0.00 | 0.00 | 0.00 | 80 | 1005.6 |
| 20260506024504 | 0 | 237 | 4.8 | 14.5 | 0.00 | 0.00 | 0.00 | 80 | 1005.5 |
| 20260506023004 | 0 | 231 | 4.8 | 14.5 | 0.00 | 0.00 | 0.00 | 81 | 1005.4 |
| 20260506022505 | 0 | 229 | 4.8 | 14.5 | 0.00 | 0.00 | 0.00 | 81 | 1005.4 |
| 20260506022004 | 0 | 233 | 4.8 | 11.3 | 0.00 | 0.00 | 0.00 | 81 | 1005.3 |
| 20260506021505 | 0 | 238 | 4.8 | 11.3 | 0.00 | 0.00 | 0.00 | 81 | 1005.3 |
| 20260506021004 | 0 | 248 | 3.2 | 9.7 | 0.00 | 0.00 | 0.00 | 81 | 1005.3 |
| 20260506020504 | 0 | 238 | 4.8 | 14.5 | 0.00 | 0.00 | 0.00 | 81 | 1005.3 |
| 20260506020006 | 0 | 237 | 4.8 | 14.5 | 0.00 | 0.00 | 0.00 | 81 | 1005.2 |
| 20260506015504 | 0 | 244 | 4.8 | 11.3 | 0.00 | 0.00 | 0.00 | 81 | 1005.2 |
| 20260506015005 | 0 | 249 | 4.8 | 9.7 | 0.00 | 0.00 | 0.00 | 81 | 1005.2 |
| 20260506014504 | 0 | 259 | 3.2 | 11.3 | 0.00 | 0.00 | 0.00 | 81 | 1005.1 |
| 20260506014006 | 0 | 258 | 4.8 | 11.3 | 0.00 | 0.00 | 0.00 | 80 | 1005.1 |
| 20260506013004 | 0 | 236 | 3.2 | 8.0 | 0.00 | 0.00 | 0.00 | 80 | 1005.0 |
| 20260506012004 | 0 | 240 | 3.2 | 12.9 | 0.00 | 0.00 | 0.00 | 80 | 1004.9 |
| 20260506011004 | 0 | 244 | 4.8 | 11.3 | 0.00 | 0.00 | 0.00 | 79 | 1004.8 |
| 20260506010505 | 0 | 244 | 4.8 | 11.3 | 0.00 | 0.00 | 0.00 | 79 | 1004.8 |
| 20260506010004 | 0 | 246 | 3.2 | 11.3 | 0.00 | 0.00 | 0.00 | 78 | 1004.7 |
| 20260506005004 | 1 | 247 | 3.2 | 9.7 | 0.00 | 0.00 | 0.00 | 77 | 1004.6 |
| 20260506004505 | 1 | 252 | 3.2 | 6.4 | 0.00 | 0.00 | 0.00 | 77 | 1004.5 |
| 20260506004004 | 1 | 241 | 4.8 | 9.7 | 0.00 | 0.00 | 0.00 | 76 | 1004.5 |
| 20260506003505 | 1 | 229 | 4.8 | 9.7 | 0.00 | 0.00 | 0.00 | 76 | 1004.5 |
| 20260506003004 | 1 | 227 | 4.8 | 9.7 | 0.00 | 0.00 | 0.00 | 75 | 1004.5 |
| 20260506002505 | 1 | 231 | 4.8 | 8.0 | 0.00 | 0.00 | 0.00 | 74 | 1004.4 |
| 20260506002004 | 1 | 230 | 4.8 | 12.9 | 0.00 | 0.00 | 0.00 | 74 | 1004.4 |
| 20260506001505 | 1 | 234 | 4.8 | 12.9 | 0.00 | 0.00 | 0.00 | 73 | 1004.4 |
| 20260506001004 | 1 | 231 | 3.2 | 8.0 | 0.00 | 0.00 | 0.00 | 72 | 1004.3 |
| 20260506000505 | 1 | 218 | 3.2 | 8.0 | 0.00 | 0.00 | 0.00 | 71 | 1004.2 |
| 20260506000004 | 2 | 218 | 3.2 | 8.0 | 0.00 | 0.00 | 0.00 | 70 | 1004.2 |
| 20260505235506 | 2 | 228 | 4.8 | 11.3 | 0.00 | 0.00 | 0.00 | 69 | 1004.1 |
| 20260505235005 | 2 | 231 | 4.8 | 11.3 | 0.00 | 0.00 | 0.00 | 68 | 1004.1 |
| 20260505234504 | 2 | 229 | 6.4 | 12.9 | 0.00 | 0.00 | 0.00 | 68 | 1004.2 |
| 20260505234004 | 2 | 240 | 6.4 | 14.5 | 0.00 | 0.00 | 0.00 | 68 | 1004.0 |
| 20260505233505 | 2 | 258 | 4.8 | 14.5 | 0.00 | 0.00 | 0.00 | 68 | 1004.0 |
| 20260505231004 | 2 | 240 | 4.8 | 14.5 | 0.00 | 0.00 | 0.00 | 72 | 1003.9 |
| 20260505230004 | 2 | 244 | 6.4 | 14.5 | 0.00 | 0.00 | 0.00 | 74 | 1003.9 |
| 20260505225505 | 1 | 240 | 6.4 | 12.9 | 0.00 | 0.00 | 0.00 | 75 | 1003.9 |
| 20260505224504 | 1 | 237 | 6.4 | 14.5 | 0.00 | 0.00 | 0.00 | 75 | 1003.9 |
| 20260505224005 | 1 | 232 | 6.4 | 17.7 | 0.00 | 0.00 | 0.00 | 75 | 1004.0 |
| 20260505223504 | 2 | 235 | 6.4 | 17.7 | 0.00 | 0.00 | 0.00 | 75 | 1003.9 |
| 20260505223005 | 2 | 237 | 6.4 | 12.9 | 0.00 | 0.00 | 0.00 | 75 | 1003.9 |
| 20260505222504 | 2 | 229 | 6.4 | 12.9 | 0.00 | 0.00 | 0.00 | 75 | 1003.9 |
| 20260505222005 | 2 | 228 | 4.8 | 12.9 | 0.00 | 0.00 | 0.00 | 74 | 1003.9 |
| 20260505221504 | 2 | 229 | 4.8 | 12.9 | 0.00 | 0.00 | 0.00 | 74 | 1003.9 |
| 20260505221004 | 2 | 219 | 4.8 | 12.9 | 0.00 | 0.00 | 0.00 | 74 | 1003.9 |
| 20260505220505 | 2 | 215 | 4.8 | 11.3 | 0.00 | 0.00 | 0.00 | 73 | 1003.8 |
| 20260505220005 | 2 | 208 | 6.4 | 14.5 | 0.00 | 0.00 | 0.00 | 73 | 1003.7 |
| 20260505215504 | 2 | 203 | 6.4 | 14.5 | 0.00 | 0.00 | 0.00 | 72 | 1003.7 |
| 20260505214505 | 2 | 204 | 6.4 | 12.9 | 0.00 | 0.00 | 0.00 | 72 | 1003.6 |
| 20260505214004 | 2 | 207 | 6.4 | 12.9 | 0.00 | 0.00 | 0.00 | 71 | 1003.6 |
| 20260505213505 | 2 | 215 | 4.8 | 11.3 | 0.00 | 0.00 | 0.00 | 71 | 1003.6 |
| 20260505213004 | 2 | 214 | 4.8 | 9.7 | 0.00 | 0.00 | 0.00 | 71 | 1003.5 |
| 20260505212505 | 2 | 212 | 4.8 | 12.9 | 0.00 | 0.00 | 0.00 | 71 | 1003.5 |
| 20260505212004 | 2 | 222 | 6.4 | 14.5 | 0.00 | 0.00 | 0.00 | 70 | 1003.5 |
| 20260505211506 | 2 | 226 | 4.8 | 14.5 | 0.00 | 0.00 | 0.00 | 71 | 1003.5 |
| 20260505211004 | 2 | 217 | 4.8 | 11.3 | 0.00 | 0.00 | 0.00 | 70 | 1003.4 |
| 20260505210505 | 2 | 205 | 4.8 | 11.3 | 0.00 | 0.00 | 0.00 | 70 | 1003.5 |
| 20260505210006 | 3 | 205 | 4.8 | 11.3 | 0.00 | 0.00 | 0.00 | 69 | 1003.5 |
| 20260505205506 | 3 | 215 | 4.8 | 12.9 | 0.00 | 0.00 | 0.00 | 69 | 1003.4 |
| 20260505205004 | 3 | 215 | 6.4 | 12.9 | 0.00 | 0.00 | 0.00 | 68 | 1003.4 |
| 20260505204506 | 3 | 210 | 4.8 | 12.9 | 0.00 | 0.00 | 0.00 | 68 | 1003.4 |
| 20260505204004 | 3 | 221 | 4.8 | 12.9 | 0.00 | 0.00 | 0.00 | 67 | 1003.4 |
| 20260505203506 | 3 | 219 | 4.8 | 14.5 | 0.00 | 0.00 | 0.00 | 67 | 1003.4 |
| 20260505203004 | 3 | 211 | 4.8 | 14.5 | 0.00 | 0.00 | 0.00 | 66 | 1003.3 |
| 20260505202506 | 3 | 207 | 6.4 | 16.1 | 0.00 | 0.00 | 0.00 | 66 | 1003.3 |
| 20260505202004 | 3 | 206 | 6.4 | 16.1 | 0.00 | 0.00 | 0.00 | 65 | 1003.2 |
| 20260505201505 | 3 | 207 | 6.4 | 12.9 | 0.00 | 0.00 | 0.00 | 64 | 1003.2 |
| 20260505200506 | 3 | 219 | 3.2 | 9.7 | 0.00 | 0.00 | 0.00 | 61 | 1003.2 |
| 20260505200004 | 3 | 224 | 3.2 | 6.4 | 0.00 | 0.00 | 0.00 | 61 | 1003.2 |
| 20260505195506 | 4 | 224 | 3.2 | 9.7 | 0.00 | 0.00 | 0.00 | 60 | 1003.2 |
| 20260505195004 | 4 | 223 | 3.2 | 9.7 | 0.00 | 0.00 | 0.00 | 60 | 1003.2 |
| 20260505194506 | 4 | 231 | 3.2 | 8.0 | 0.00 | 0.00 | 0.00 | 59 | 1003.1 |
| 20260505194004 | 4 | 231 | 3.2 | 8.0 | 0.00 | 0.00 | 0.00 | 58 | 1003.2 |
| 20260505193506 | 5 | 221 | 3.2 | 8.0 | 0.00 | 0.00 | 0.00 | 57 | 1003.2 |
| 20260505193004 | 5 | 219 | 3.2 | 9.7 | 0.00 | 0.00 | 0.00 | 56 | 1003.1 |
| 20260505191506 | 5 | 246 | 4.8 | 14.5 | 0.00 | 0.00 | 0.00 | 54 | 1003.1 |
| 20260505191004 | 5 | 246 | 6.4 | 14.5 | 0.00 | 0.00 | 0.00 | 53 | 1003.1 |
| 20260505190506 | 5 | 237 | 8.0 | 19.3 | 0.00 | 0.00 | 0.00 | 53 | 1003.0 |
| 20260505190004 | 5 | 239 | 6.4 | 19.3 | 0.00 | 0.00 | 0.00 | 53 | 1003.1 |
| 20260505185506 | 5 | 244 | 6.4 | 11.3 | 0.00 | 0.00 | 0.00 | 52 | 1003.0 |
| 20260505185004 | 6 | 239 | 6.4 | 11.3 | 0.00 | 0.00 | 0.00 | 52 | 1003.0 |
| 20260505184506 | 6 | 235 | 6.4 | 12.9 | 0.00 | 0.00 | 0.00 | 51 | 1002.9 |
| 20260505184004 | 6 | 238 | 6.4 | 16.1 | 0.00 | 0.03 | 0.00 | 51 | 1002.9 |
| 20260505183508 | 6 | 237 | 6.4 | 16.1 | 0.00 | 0.03 | 0.00 | 50 | 1002.9 |
| 20260505183004 | 6 | 245 | 6.4 | 11.3 | 0.00 | 0.05 | 0.00 | 50 | 1002.8 |
| 20260505182506 | 6 | 264 | 6.4 | 16.1 | 0.00 | 0.05 | 0.00 | 49 | 1002.7 |
| 20260505182004 | 6 | 259 | 8.0 | 19.3 | 0.00 | 0.05 | 0.00 | 48 | 1002.7 |
| 20260505181506 | 6 | 253 | 8.0 | 19.3 | 0.00 | 0.05 | 0.00 | 47 | 1002.7 |
| 20260505181004 | 6 | 249 | 8.0 | 19.3 | 0.00 | 0.05 | 0.00 | 47 | 1002.7 |
| 20260505180004 | 7 | 258 | 8.0 | 16.1 | 0.00 | 0.05 | 0.00 | 46 | 1002.6 |
| 20260505175004 | 7 | 256 | 8.0 | 20.9 | 0.00 | 0.05 | 0.00 | 46 | 1002.5 |
| 20260505173506 | 7 | 257 | 9.7 | 20.9 | 0.00 | 0.05 | 0.00 | 45 | 1002.4 |
| 20260505173004 | 7 | 258 | 9.7 | 20.9 | 0.00 | 0.05 | 0.00 | 44 | 1002.4 |
| 20260505172506 | 7 | 260 | 9.7 | 20.9 | 0.00 | 0.05 | 0.00 | 43 | 1002.4 |
| 20260505172004 | 8 | 258 | 11.3 | 29.0 | 0.00 | 0.05 | 0.00 | 43 | 1002.3 |
| 20260505171506 | 8 | 249 | 11.3 | 29.0 | 0.00 | 0.05 | 0.00 | 42 | 1002.3 |
| 20260505170506 | 8 | 254 | 8.0 | 19.3 | 0.00 | 0.05 | 0.00 | 40 | 1002.2 |
| 20260505170004 | 8 | 254 | 9.7 | 22.5 | 0.00 | 0.05 | 0.00 | 40 | 1002.2 |
| 20260505165506 | 8 | 249 | 11.3 | 25.7 | 0.00 | 0.05 | 0.00 | 40 | 1002.2 |
| 20260505165004 | 8 | 246 | 11.3 | 25.7 | 0.00 | 0.05 | 0.00 | 40 | 1002.2 |
| 20260505164506 | 8 | 252 | 11.3 | 24.1 | 0.00 | 0.05 | 0.00 | 39 | 1002.2 |
| 20260505164004 | 8 | 263 | 11.3 | 35.4 | 0.00 | 0.05 | 0.00 | 39 | 1002.1 |
| 20260505163506 | 9 | 264 | 9.7 | 35.4 | 0.00 | 0.05 | 0.00 | 37 | 1002.1 |
| 20260505162506 | 9 | 261 | 6.4 | 22.5 | 0.00 | 0.05 | 0.00 | 39 | 1002.0 |
| 20260505162006 | 9 | 266 | 4.8 | 22.5 | 0.00 | 0.05 | 0.00 | 39 | 1002.0 |
| 20260505161506 | 9 | 273 | 6.4 | 19.3 | 0.00 | 0.05 | 0.00 | 39 | 1002.0 |
| 20260505161004 | 9 | 273 | 9.7 | 24.1 | 0.00 | 0.05 | 0.00 | 37 | 1001.9 |
| 20260505160506 | 9 | 272 | 8.0 | 24.1 | 0.00 | 0.05 | 0.00 | 37 | 1002.0 |
| 20260505153006 | 9 | 273 | 4.8 | 24.1 | 0.00 | 0.05 | 0.00 | 35 | 1001.7 |
| 20260505152504 | 9 | 272 | 6.4 | 24.1 | 0.00 | 0.05 | 0.00 | 35 | 1001.7 |
| 20260505152006 | 9 | 281 | 4.8 | 20.9 | 0.00 | 0.05 | 0.00 | 35 | 1001.7 |
| 20260505151504 | 9 | 314 | 3.2 | 19.3 | 0.00 | 0.05 | 0.00 | 34 | 1001.7 |
| 20260505151006 | 10 | 310 | 3.2 | 16.1 | 0.00 | 0.05 | 0.00 | 34 | 1001.6 |
| 20260505140506 | 10 | 283 | 6.4 | 19.3 | 0.00 | 0.05 | 0.00 | 38 | 1001.2 |
| 20260505125005 | 9 | 279 | 9.7 | 27.4 | 0.00 | 0.05 | 0.00 | 40 | 1000.8 |
| 20260505124504 | 9 | 271 | 11.3 | 27.4 | 0.00 | 0.05 | 0.00 | 38 | 1000.8 |
| 20260505124006 | 9 | 280 | 6.4 | 19.3 | 0.00 | 0.05 | 0.00 | 38 | 1000.7 |
| 20260505123504 | 9 | 275 | 8.0 | 25.7 | 0.00 | 0.05 | 0.00 | 40 | 1000.6 |
| 20260505123006 | 9 | 262 | 9.7 | 25.7 | 0.00 | 0.05 | 0.00 | 38 | 1000.4 |
| 20260505122504 | 9 | 261 | 9.7 | 29.0 | 0.00 | 0.05 | 0.00 | 42 | 1000.4 |
| 20260505122006 | 9 | 276 | 9.7 | 29.0 | 0.00 | 0.05 | 0.00 | 39 | 1000.5 |
| 20260505121006 | 8 | 265 | 11.3 | 30.6 | 0.00 | 0.05 | 0.00 | 40 | 1000.3 |
| 20260505120505 | 8 | 270 | 11.3 | 32.2 | 0.00 | 0.05 | 0.00 | 39 | 1000.3 |
| 20260505120006 | 8 | 281 | 9.7 | 32.2 | 0.00 | 0.05 | 0.00 | 39 | 1000.3 |
| 20260505115504 | 8 | 270 | 11.3 | 29.0 | 0.00 | 0.05 | 0.00 | 39 | 1000.3 |
| 20260505115006 | 8 | 265 | 12.9 | 29.0 | 0.00 | 0.05 | 0.00 | 39 | 1000.2 |
| 20260505114504 | 8 | 270 | 12.9 | 35.4 | 0.00 | 0.05 | 0.00 | 39 | 1000.2 |
| 20260505114006 | 8 | 278 | 8.0 | 35.4 | 0.00 | 0.05 | 0.00 | 39 | 1000.2 |
| 20260505113008 | 8 | 276 | 8.0 | 30.6 | 0.00 | 0.05 | 0.00 | 38 | 1000.1 |
| 20260505112504 | 8 | 268 | 9.7 | 25.7 | 0.00 | 0.05 | 0.00 | 38 | 999.9 |
| 20260505112004 | 8 | 269 | 9.7 | 25.7 | 0.00 | 0.05 | 0.00 | 38 | 999.9 |
| 20260505111506 | 8 | 286 | 6.4 | 19.3 | 0.00 | 0.05 | 0.00 | 38 | 999.8 |
| 20260505111004 | 8 | 306 | 4.8 | 19.3 | 0.00 | 0.05 | 0.00 | 38 | 999.8 |
| 20260505110504 | 8 | 300 | 4.8 | 20.9 | 0.00 | 0.05 | 0.00 | 39 | 999.8 |
| 20260505102006 | 8 | 255 | 11.3 | 22.5 | 0.00 | 0.05 | 0.00 | 43 | 999.3 |
| 20260505101005 | 8 | 255 | 9.7 | 25.7 | 0.00 | 0.05 | 0.00 | 42 | 999.1 |
| 20260505100504 | 8 | 252 | 11.3 | 25.7 | 0.00 | 0.05 | 0.00 | 44 | 999.1 |
| 20260505095506 | 8 | 279 | 4.8 | 30.6 | 0.00 | 0.05 | 0.00 | 44 | 998.9 |
| 20260505095005 | 8 | 295 | 6.4 | 27.4 | 0.00 | 0.05 | 0.00 | 45 | 998.9 |
| 20260505094506 | 8 | 290 | 6.4 | 27.4 | 0.00 | 0.05 | 0.00 | 46 | 998.9 |
| 20260505094004 | 7 | 288 | 6.4 | 20.9 | 0.00 | 0.05 | 0.00 | 48 | 998.8 |
| 20260505093506 | 7 | 272 | 8.0 | 24.1 | 0.00 | 0.05 | 0.00 | 48 | 998.8 |